sat.trackr.live / text

‹ back to catalog

2023-091F

NORAD 57171 · 2023-091F

PAYLOAD ACTIVE UNKNOWN

§ Identity

Operator
Country
CIS
Launch date
2023-06-27
Launch site
VOSTO
Launch vehicle
Mass (kg)
RCS (m²)

External: N2YO · Heavens-Above · Gunter

§ Orbital elements

Epoch: 2026-05-25T04:55:35.056704Z

Period
94.50 min
Inclination
97.5126°
Eccentricity
0.0011100
Mean motion
15.23742708 rev/d
Perigee alt
486.9 km
Apogee alt
502.2 km
Semi-major
6,872.7 km
B*
3.4760e-4
RAAN
206.7296°
Arg perigee
183.4233°
Mean anomaly
176.6930°
Rev number
16,066

§ Raw data

2023-091F1 57171U 23091F   26145.20526686  .00008299  00000+0  34760-3 0  99992 57171  97.5126 206.7296 0011100 183.4233 176.6930 15.23742708160662

JSON: /api/v1/satellites/57171 · /tle

For live sub-satellite position, see the globe view (requires WebGL).

§ Visibility from observer

Set your observer location to see the next 7 days of passes ≥ 10°. The values pass through the URL so the page stays shareable.

No JS? Fill the form by hand. The geolocation button needs JavaScript.